Precipitable_Water
0.24 0.20 0.18 0.21 0.32 0.36 0.36 0.34 0.31 0.35 0.40 0.43 0.40 0.40 0.43 0.43 0.43 0.42 0.44 0.47 0.48 0.53 0.78 0.86 0.89 0.92 0.82 0.73 0.75 0.88 1.03 1.13 1.15 1.13 1.11 1.24 1.32 1.44 1.46 1.64 1.64 1.58 1.56 1.44
0.22 0.17 0.22 0.26 0.27 0.28 0.28 0.27 0.28 0.33 0.40 0.45 0.43 0.40 0.45 0.45 0.42 0.42 0.42 0.41 0.42 0.58 0.74 0.83 0.86 0.86 0.79 0.63 0.75 0.83 0.97 1.08 1.12 1.14 1.18 1.30 1.35 1.42 1.48 1.53 1.54 1.53 1.47 1.42
0.26 0.23 0.25 0.23 0.23 0.23 0.23 0.25 0.28 0.30 0.38 0.43 0.47 0.39 0.42 0.45 0.45 0.45 0.44 0.42 0.43 0.54 0.66 0.79 0.80 0.81 0.75 0.61 0.73 0.80 0.90 1.00 1.13 1.12 1.22 1.29 1.35 1.41 1.43 1.47 1.47 1.47 1.47 1.43
0.30 0.35 0.29 0.21 0.20 0.23 0.19 0.26 0.28 0.32 0.36 0.31 0.50 0.30 0.40 0.43 0.45 0.45 0.44 0.44 0.43 0.59 0.70 0.75 0.75 0.78 0.71 0.62 0.76 0.82 0.85 0.93 1.11 1.14 1.14 1.19 1.20 1.19 1.35 1.42 1.45 1.48 1.48 1.43
0.18 0.26 0.28 0.25 0.26 0.25 0.22 0.33 0.28 0.30 0.34 0.34 0.39 0.36 0.36 0.45 0.43 0.44 0.42 0.41 0.43 0.59 0.64 0.66 0.69 0.77 0.73 0.64 0.71 0.81 0.86 0.91 1.05 1.15 1.16 1.17 1.17 1.23 1.34 1.39 1.41 1.45 1.45 1.44
0.21 0.28 0.27 0.28 0.29 0.30 0.31 0.30 0.33 0.33 0.35 0.27 0.38 0.38 0.32 0.39 0.44 0.46 0.44 0.45 0.43 0.58 0.64 0.66 0.76 0.82 0.72 0.66 0.72 0.78 0.82 0.88 1.00 1.09 1.16 1.16 1.15 1.19 1.24 1.28 1.29 1.35 1.39 1.38
0.16 0.18 0.23 0.27 0.24 0.29 0.30 0.27 0.23 0.26 0.25 0.23 0.35 0.33 0.34 0.42 0.49 0.50 0.48 0.47 0.47 0.60 0.66 0.66 0.70 0.76 0.70 0.63 0.66 0.72 0.77 0.82 0.96 1.03 1.07 1.14 1.16 1.18 1.17 1.23 1.25 1.27 1.28 1.30
0.14 0.11 0.16 0.21 0.24 0.25 0.28 0.29 0.24 0.21 0.22 0.24 0.36 0.34 0.41 0.55 0.56 0.54 0.54 0.54 0.56 0.63 0.64 0.65 0.71 0.73 0.70 0.64 0.64 0.65 0.70 0.76 0.88 0.97 1.01 1.05 1.06 1.07 1.08 1.11 1.15 1.19 1.23 1.26
0.18 0.15 0.25 0.22 0.22 0.30 0.27 0.27 0.32 0.28 0.32 0.31 0.34 0.40 0.46 0.60 0.56 0.57 0.54 0.55 0.59 0.64 0.67 0.65 0.70 0.71 0.71 0.64 0.64 0.62 0.65 0.74 0.83 0.89 0.94 0.97 1.00 1.00 0.98 1.01 1.09 1.13 1.17 1.19
0.30 0.19 0.26 0.32 0.28 0.26 0.27 0.33 0.28 0.30 0.23 0.22 0.30 0.35 0.39 0.54 0.55 0.59 0.59 0.53 0.60 0.69 0.72 0.71 0.69 0.69 0.73 0.69 0.67 0.68 0.68 0.70 0.81 0.87 0.92 0.92 0.94 0.98 0.99 0.98 0.98 1.03 1.07 1.12
0.35 0.27 0.28 0.33 0.23 0.22 0.29 0.29 0.34 0.36 0.35 0.24 0.21 0.26 0.49 0.56 0.60 0.62 0.62 0.58 0.63 0.70 0.70 0.68 0.70 0.72 0.76 0.78 0.70 0.66 0.69 0.69 0.76 0.83 0.89 0.90 0.90 0.94 0.96 0.95 0.95 0.98 0.99 0.98
0.38 0.30 0.28 0.30 0.38 0.39 0.32 0.30 0.30 0.31 0.27 0.29 0.27 0.24 0.54 0.52 0.65 0.63 0.68 0.64 0.61 0.61 0.80 0.81 0.77 0.78 0.76 0.79 0.79 0.74 0.74 0.75 0.76 0.79 0.84 0.86 0.90 0.92 0.94 0.95 0.95 0.94 0.92 0.95
0.38 0.28 0.22 0.28 0.35 0.39 0.33 0.33 0.32 0.29 0.28 0.23 0.24 0.29 0.56 0.58 0.60 0.70 0.68 0.68 0.65 0.60 0.69 0.87 0.86 0.83 0.79 0.80 0.83 0.82 0.80 0.79 0.82 0.81 0.79 0.84 0.85 0.89 0.90 0.92 0.95 0.99 0.99 0.99
0.34 0.24 0.20 0.21 0.31 0.38 0.29 0.37 0.42 0.40 0.26 0.23 0.25 0.30 0.45 0.56 0.60 0.62 0.59 0.60 0.68 0.61 0.58 0.82 0.90 0.85 0.86 0.83 0.84 0.90 0.89 0.85 0.84 0.87 0.83 0.81 0.83 0.86 0.89 0.94 0.96 0.96 0.98 0.98
0.30 0.21 0.21 0.24 0.27 0.28 0.27 0.27 0.31 0.39 0.38 0.30 0.30 0.32 0.42 0.53 0.63 0.55 0.50 0.60 0.64 0.63 0.64 0.59 0.67 0.94 0.87 0.91 0.90 0.92 0.95 0.96 0.86 0.85 0.88 0.85 0.86 0.88 0.86 0.89 0.92 0.94 0.95 0.96
0.28 0.21 0.23 0.17 0.24 0.25 0.27 0.24 0.24 0.31 0.33 0.32 0.33 0.32 0.39 0.42 0.46 0.48 0.56 0.62 0.64 0.68 0.71 0.69 0.70 0.71 0.94 0.92 0.90 0.90 0.91 0.95 0.98 0.89 0.86 0.91 0.91 0.90 0.88 0.89 0.89 0.91 0.91 0.95
0.27 0.24 0.21 0.18 0.21 0.20 0.17 0.22 0.22 0.20 0.24 0.26 0.24 0.29 0.36 0.34 0.43 0.55 0.57 0.58 0.59 0.64 0.67 0.72 0.72 0.74 0.79 0.96 1.13 0.95 0.95 0.97 0.96 0.95 0.92 0.91 0.92 0.93 0.93 0.94 0.92 0.93 0.93 0.96
0.27 0.25 0.24 0.20 0.23 0.15 0.15 0.25 0.24 0.22 0.27 0.30 0.32 0.40 0.42 0.41 0.47 0.57 0.60 0.58 0.59 0.60 0.64 0.67 0.73 0.74 0.78 0.82 0.89 1.18 1.07 0.93 0.92 0.92 0.91 0.92 0.92 0.94 0.99 0.99 0.97 0.97 0.97 0.97
0.28 0.27 0.22 0.20 0.21 0.20 0.22 0.27 0.28 0.27 0.33 0.41 0.38 0.41 0.46 0.45 0.43 0.48 0.58 0.61 0.63 0.63 0.66 0.66 0.73 0.78 0.81 0.84 0.83 0.81 0.95 1.13 0.98 0.92 0.94 0.97 0.96 0.96 1.00 0.99 0.97 0.98 0.99 0.98
0.22 0.27 0.25 0.24 0.17 0.13 0.27 0.36 0.37 0.37 0.29 0.49 0.47 0.43 0.46 0.44 0.32 0.38 0.50 0.50 0.53 0.61 0.65 0.64 0.68 0.75 0.79 0.82 0.86 0.79 0.81 1.03 1.06 1.02 1.00 1.08 1.08 1.03 0.96 0.96 0.97 0.96 0.97 0.98
0.16 0.21 0.19 0.18 0.23 0.21 0.37 0.41 0.38 0.24 0.30 0.45 0.45 0.47 0.45 0.42 0.46 0.48 0.50 0.54 0.59 0.63 0.65 0.64 0.64 0.65 0.74 0.80 0.83 0.79 0.78 0.88 1.04 1.13 1.11 1.07 1.07 1.04 1.01 0.98 0.97 0.97 0.98 0.93
0.20 0.21 0.23 0.25 0.21 0.18 0.37 0.39 0.34 0.44 0.45 0.41 0.45 0.45 0.44 0.47 0.47 0.47 0.51 0.53 0.53 0.57 0.59 0.60 0.59 0.58 0.64 0.73 0.78 0.79 0.77 0.83 0.89 1.03 1.05 1.02 1.01 1.03 1.03 1.01 0.99 0.99 0.97 0.93
0.26 0.26 0.25 0.24 0.21 0.31 0.41 0.46 0.55 0.49 0.44 0.41 0.42 0.44 0.43 0.41 0.39 0.43 0.47 0.48 0.51 0.56 0.57 0.59 0.57 0.58 0.62 0.66 0.71 0.71 0.77 0.81 0.87 0.89 0.88 0.91 0.94 0.95 0.97 0.98 0.96 0.94 0.92 0.89
0.44 0.44 0.35 0.34 0.34 0.37 0.40 0.46 0.51 0.49 0.46 0.47 0.46 0.43 0.43 0.42 0.43 0.43 0.46 0.48 0.53 0.59 0.60 0.61 0.58 0.55 0.57 0.65 0.71 0.73 0.72 0.74 0.77 0.83 0.87 0.89 0.89 0.90 0.93 0.95 0.94 0.91 0.89 0.86
0.41 0.48 0.43 0.39 0.44 0.46 0.53 0.53 0.51 0.49 0.52 0.51 0.50 0.50 0.45 0.40 0.39 0.41 0.44 0.48 0.54 0.61 0.63 0.63 0.61 0.59 0.59 0.64 0.69 0.73 0.74 0.71 0.69 0.71 0.76 0.80 0.81 0.82 0.84 0.84 0.83 0.82 0.83 0.82
0.41 0.43 0.40 0.39 0.52 0.51 0.51 0.52 0.55 0.52 0.50 0.51 0.48 0.47 0.43 0.38 0.39 0.45 0.49 0.55 0.57 0.60 0.62 0.63 0.63 0.61 0.65 0.66 0.69 0.73 0.74 0.73 0.69 0.65 0.62 0.67 0.71 0.73 0.75 0.74 0.74 0.77 0.74 0.73
Wind_Speed
25 26 28 27 29 30 28 29 31 28 25 22 23 25 22 22 22 21 21 21 20 18 15 12 10 10 10 10 8 6 5 4 6 8 10 11 13 14 18 25 30 36 37 33
26 32 27 27 28 30 30 32 32 32 28 26 26 27 25 22 22 23 22 20 20 16 16 14 11 10 10 9 7 5 5 5 6 8 8 9 13 17 21 27 30 36 34 33
29 25 26 27 27 29 31 30 28 30 27 29 29 31 25 23 21 23 25 22 18 20 18 16 14 11 10 8 7 6 5 5 6 7 7 7 10 13 19 27 28 33 35 34
29 29 29 28 29 27 28 27 28 28 24 25 19 31 29 27 26 24 24 24 21 21 19 16 15 13 10 8 7 6 5 3 4 7 8 8 10 12 16 23 27 29 33 34
31 23 26 30 29 28 28 23 25 26 24 24 22 25 24 26 27 24 20 21 22 24 20 18 16 14 11 9 8 6 5 4 3 6 8 10 10 11 15 18 23 28 31 32
32 27 25 25 26 26 23 21 21 22 18 25 23 23 21 23 25 20 20 21 23 24 19 16 15 13 11 9 9 7 5 5 5 6 9 10 12 13 15 17 20 24 26 30
27 33 30 27 25 26 25 23 17 15 19 20 20 23 25 23 25 27 21 17 18 22 19 18 16 14 12 11 10 8 7 6 7 7 8 10 12 13 15 17 20 22 23 24
20 21 29 28 29 23 23 20 19 18 18 16 18 17 14 14 19 21 18 18 18 19 18 18 16 15 13 13 11 10 8 7 7 8 9 9 11 11 13 15 17 22 23 24
17 20 16 22 30 27 23 25 23 22 18 12 15 17 16 9 13 9 12 12 15 17 17 17 16 15 14 14 13 11 10 9 8 8 9 10 11 12 12 14 16 18 21 22
17 16 18 19 24 28 26 19 20 21 23 19 15 14 10 11 5 12 7 11 18 18 18 18 17 16 15 15 14 13 12 10 10 9 9 10 11 12 12 14 16 17 19 21
16 15 14 10 15 23 21 25 17 15 21 17 15 14 13 13 10 10 11 4 7 17 20 19 18 17 16 16 15 14 14 11 10 11 9 10 12 13 14 15 16 16 18 20
15 13 13 13 9 12 24 22 20 19 17 15 18 17 13 10 9 9 12 8 7 5 17 20 19 18 17 17 16 16 15 14 12 12 11 11 12 13 15 15 16 16 17 18
12 12 12 10 7 7 12 16 17 25 23 22 15 14 10 7 5 7 10 14 9 8 6 17 19 19 19 18 17 18 17 16 15 14 14 13 13 15 16 17 17 17 17 19
11 12 9 12 10 10 10 7 10 11 19 22 20 16 11 10 12 10 10 8 10 5 4 6 21 21 20 21 20 19 19 20 19 18 16 17 16 16 18 19 18 19 19 19
11 13 12 12 12 10 12 12 10 11 16 15 17 17 10 12 18 14 8 6 5 4 4 7 4 12 20 23 23 21 20 20 22 22 20 20 19 19 18 20 21 21 21 21
15 15 14 16 14 16 17 17 17 17 14 14 14 18 16 15 15 11 8 7 6 8 9 8 10 10 13 23 24 24 23 22 22 23 23 21 21 21 21 21 21 22 22 21
16 15 13 15 15 16 18 18 19 20 20 17 16 17 21 18 12 11 11 11 12 12 13 13 13 13 12 13 25 25 24 25 24 23 23 23 23 22 22 22 22 22 23 23
16 15 14 14 13 15 14 13 14 14 14 14 12 10 10 15 16 13 13 14 15 17 16 17 18 18 17 17 16 23 27 25 25 25 25 24 24 23 22 22 22 21 21 22
19 16 14 13 14 14 13 11 10 11 8 9 10 9 9 11 15 16 14 15 17 18 19 20 21 22 21 19 20 21 24 29 27 26 27 27 27 25 25 23 22 21 20 20
24 19 15 12 14 13 11 8 9 11 12 9 8 9 10 9 12 15 15 16 16 18 21 22 23 23 23 22 22 22 20 25 29 30 29 27 28 28 26 26 24 23 22 22
21 19 20 17 12 14 14 13 11 11 12 12 11 10 10 11 13 15 16 16 16 17 18 20 23 25 25 26 24 22 23 22 26 26 27 26 26 26 28 27 26 25 23 25
16 16 16 18 15 14 10 14 12 11 12 12 12 11 11 12 14 16 16 17 18 19 20 22 23 25 27 28 28 27 26 26 25 25 26 25 26 26 26 27 27 26 25 25
10 15 12 16 15 11 11 10 11 10 12 12 10 10 10 13 15 15 16 16 19 21 23 24 26 27 27 28 30 30 30 30 29 28 27 26 26 25 27 28 28 27 27 27
6 11 10 9 11 12 12 12 12 10 8 9 9 10 11 13 14 16 17 18 20 21 22 25 27 27 27 28 28 28 30 30 30 30 28 28 27 26 25 26 27 27 27 27
6 6 7 9 9 9 8 10 10 10 9 8 8 10 12 14 15 16 18 19 20 21 22 23 25 25 26 26 26 27 27 28 28 29 29 28 27 26 25 24 24 25 25 26
8 5 5 8 6 8 11 10 10 9 8 8 9 10 11 13 15 16 17 17 17 19 21 21 21 19 21 21 22 23 23 24 24 25 27 28 27 26 25 24 22 19 19 19
Wind_Direction
243 245 246 246 248 254 260 261 263 267 268 267 265 275 277 253 256 255 259 256 256 251 237 241 259 274 293 306 311 299 283 252 228 229 229 230 223 208 196 184 185 190 187 193
246 246 247 249 251 251 252 256 262 267 266 266 268 271 264 265 253 255 259 259 253 236 231 239 250 268 283 292 295 287 271 260 238 229 234 223 217 211 204 198 198 195 199 199
245 251 244 245 248 251 253 254 259 261 261 258 263 267 262 262 259 260 257 256 251 229 227 234 245 257 269 274 273 266 269 262 239 221 214 217 203 199 200 200 198 201 203 204
250 248 247 242 246 246 255 256 258 261 258 259 256 264 260 263 268 257 252 252 246 230 223 231 240 247 254 257 254 254 252 252 236 208 200 192 183 182 189 192 196 197 198 200
246 248 244 246 247 243 252 253 253 256 253 256 251 260 256 258 266 258 253 253 233 221 224 231 231 234 241 239 237 238 237 234 197 191 181 177 175 170 168 179 186 196 196 199
252 252 249 250 253 250 249 251 254 251 249 253 253 248 254 252 253 263 254 260 224 215 221 223 223 225 229 227 224 224 222 218 193 175 177 179 176 176 176 175 182 186 196 202
250 249 250 248 252 252 241 239 245 251 242 249 247 254 257 261 249 248 266 235 208 211 218 216 214 223 218 216 214 213 211 206 199 188 180 176 180 183 186 190 194 193 196 197
238 251 237 239 236 237 235 230 229 234 239 253 246 246 256 264 256 243 247 232 217 211 213 211 216 216 212 211 209 204 202 197 193 192 193 192 188 191 193 193 197 202 204 201
245 243 248 239 234 230 230 234 235 240 245 242 246 256 266 284 287 236 232 208 203 203 208 211 210 210 209 208 208 206 202 199 197 193 194 195 195 195 196 195 194 194 198 201
240 249 247 256 224 227 225 227 225 225 235 240 238 245 239 270 278 203 262 233 216 214 215 214 212 210 210 208 206 208 205 205 204 202 203 200 200 202 201 195 194 195 197 200
236 238 235 235 217 218 220 220 223 233 234 231 241 246 234 224 241 219 228 249 223 223 217 213 212 212 208 208 208 208 210 210 210 210 211 206 204 202 200 198 197 199 200 203
231 224 218 228 245 240 219 219 215 220 223 231 233 239 222 221 209 243 218 245 240 275 227 215 212 212 209 209 210 213 215 218 218 217 216 212 207 202 200 200 202 203 203 206
228 224 211 212 232 245 217 221 231 230 228 232 227 232 214 210 202 231 215 239 241 286 251 215 213 213 214 214 216 218 221 222 220 220 219 219 216 212 210 210 209 210 212 215
223 218 216 208 197 209 227 230 222 238 225 225 229 235 221 222 232 227 237 223 218 244 247 230 219 215 218 219 221 224 226 226 226 225 225 225 225 222 222 220 219 220 221 223
232 229 233 231 234 244 250 241 224 237 245 230 234 238 229 219 228 255 263 239 238 241 280 263 330 242 224 225 226 229 231 231 229 229 230 232 231 230 228 228 229 229 230 232
233 237 241 236 240 244 251 244 241 242 240 237 239 240 232 234 239 256 246 239 253 245 254 265 265 283 257 229 230 231 232 234 233 230 232 233 231 232 232 232 232 233 234 237
229 230 236 236 249 257 245 240 244 246 245 244 246 251 248 247 255 236 244 249 254 254 255 260 267 272 280 259 240 232 234 233 233 232 231 231 232 233 234 235 235 238 239 240
231 230 234 240 242 237 240 246 247 229 240 238 231 251 252 240 235 235 250 257 260 259 260 263 264 267 271 268 262 246 238 233 233 234 233 232 232 233 234 235 236 238 240 241
227 229 234 229 225 246 246 235 227 222 226 239 236 244 251 253 236 242 266 269 268 261 264 265 264 263 263 267 265 257 247 237 235 234 235 236 237 235 235 236 236 238 238 241
221 222 218 219 217 222 212 238 235 235 225 245 243 249 254 258 241 250 269 276 270 265 267 269 266 263 262 265 267 260 260 241 240 240 240 240 239 237 236 236 237 239 241 242
207 213 213 216 224 230 221 246 252 230 228 240 246 246 257 256 251 263 272 274 273 273 275 274 267 265 263 261 260 257 255 251 244 242 240 243 239 238 237 235 238 240 247 241
202 204 213 212 219 226 233 231 230 225 236 243 243 253 261 270 273 274 275 276 281 279 279 280 275 270 266 261 256 253 251 251 249 243 242 242 242 239 238 234 239 243 245 243
194 200 198 206 217 224 229 226 231 236 251 242 244 259 271 278 282 280 279 284 289 287 283 283 279 271 269 264 258 252 250 248 247 246 245 244 243 242 241 240 241 244 245 245
183 208 210 209 219 222 233 228 238 246 247 243 255 266 278 283 283 281 286 288 291 292 292 291 286 275 270 264 259 253 249 246 244 243 243 242 242 242 243 243 245 245 247 246
201 190 219 215 240 238 244 225 238 244 234 251 271 274 288 292 291 288 290 290 291 291 299 300 294 282 272 261 255 251 248 244 242 240 239 239 240 240 241 243 245 246 248 245
216 218 220 209 210 235 217 229 259 229 245 262 275 281 296 303 301 296 293 291 295 291 302 306 304 292 279 258 249 246 243 239 237 237 236 235 236 238 238 238 239 243 240 243